Location: Bruneau Dunes Observatory
(42.9024°N, 115.6902°W)
Time: 17:13:05
(UTC-06:00)

Daily predictions for brighter satellites

Satellite Brightness Start Highest point End
(mag) Time Altitude Azimuth Time Altitude Azimuth Time Altitude Azimuth
DEBRIS 3.8 21:37:00 10° SSW 21:40:02 42° SE 21:48:28 10° ENE
Spot 1 4.2 21:36:28 10° SSE 21:41:04 76° ENE 21:45:26 10° N
Helios 1B rocket 2.5 21:37:24 10° NNE 21:41:30 63° ESE 21:45:35 10° S
Cosmos 2369 Rocket 3.3 21:36:16 10° NW 21:41:36 44° WSW 21:46:57 10° S
Aureole 3 Rocket 4.4 21:36:21 10° SSE 21:42:31 36° E 21:47:07 10° NNE
YAOGAN 6 3.2 21:40:35 10° SE 21:43:50 37° ENE 21:47:06 10° N
NOSS 2-2 (E) 3.9 21:41:02 10° S 21:44:47 39° ESE 21:49:02 10° NE
SAR-Lupe-4 3.5 21:41:58 10° SSE 21:45:31 75° ENE 21:49:08 10° N
Cosmos 1656 Rocket 4.0 21:40:47 10° NNW 21:46:05 49° ENE 21:51:23 10° SE
Meteor 1-29 3.0 21:43:28 10° NNE 21:46:49 55° ESE 21:50:07 10° S
NOSS 5 (C) 4.3 21:46:33 10° SW 21:50:11 89° NW 21:53:18 10° NE
Cosmos 1939 Rocket 2.7 21:46:42 10° SSE 21:50:34 82° ENE 21:54:27 10° N
Cosmos 1500 3.5 21:50:05 10° NNW 21:53:51 68° W 21:57:34 10° S
COSMOS 2455 3.0 21:48:35 10° NNW 21:54:38 79° WSW 22:00:37 10° SSE
Cosmos 1437 2.9 21:51:35 10° S 21:54:44 54° E 21:57:54 10° NNE
Cosmos 1709 Rocket 4.4 21:50:01 10° NNW 21:56:16 68° W 22:02:24 10° S
Cosmos 1943 Rocket 2.7 21:54:47 10° NNW 22:00:18 58° WSW 22:05:43 10° S
OAO 2 Rocket 4.3 21:56:22 10° SW 22:00:28 26° SSE 22:04:25 11° ESE
SAR-Lupe-1 4.2 21:58:45 10° S 22:02:20 78° WSW 22:05:57 10° NNW
Cosmos 1818 3.5 21:56:58 10° SSW 22:02:22 75° ESE 22:07:50 10° NE
CZ-4B DEB 3.0 22:00:42 10° S 22:03:39 63° WSW 22:06:39 10° NNW
USA 186 4.1 22:01:12 10° SSW 22:03:51 23° W 22:06:29 10° NW
ERS-1 Rocket 3.1 22:01:39 10° SSE 22:06:35 61° ENE 22:11:33 10° N
H-2A R/B 3.4 22:04:42 11° ESE 22:08:16 23° ENE 22:12:08 10° NNE
NOAA 11 4.5 22:04:20 11° SE 22:09:26 52° ENE 22:14:42 10° N
COSMOS 2406 3.4 22:04:07 10° S 22:09:38 51° ESE 22:15:10 10° NE
USA 81 4.2 22:10:05 10° S 22:15:22 80° W 22:20:41 10° N
Cosmos 2112 Rocket 4.3 22:11:04 10° S 22:16:00 44° ESE 22:20:56 10° NNE
Cosmos 1743 2.7 22:12:42 10° N 22:16:37 90° NE 22:20:24 11° S
ARGOS 3.7 22:13:54 14° SE 22:18:17 46° ENE 22:23:25 10° N
Cosmos 773 Rocket 4.3 22:14:34 10° SSW 22:19:43 70° WNW 22:24:51 10° NNE
CZ-3A R/B 2.8 22:17:39 10° S 22:19:42 15° SSE 22:19:42 15° SSE
DNEPR-1 R/B 3.7 22:20:54 10° NNW 22:25:06 61° NE 22:28:12 19° SE
Okean 2 4.4 22:24:43 19° SE 22:26:46 29° E 22:30:18 10° NNE
SL-27 R/B 3.1 22:24:26 15° SSE 22:27:03 38° ESE 22:30:29 10° NE
NOSS 2-2 (D) 3.4 22:23:28 10° SW 22:27:28 88° ESE 22:32:06 10° NE
ASTRO E2 4.5 22:26:06 10° SW 22:28:31 16° S 22:29:07 15° S
Cosmos 1536 Rocket 4.4 22:26:10 10° SSW 22:30:22 50° WNW 22:34:36 10° N
Cosmos 1437 Rocket 3.8 22:27:57 10° NNE 22:31:19 29° ENE 22:32:58 21° ESE
USA 245 3.0 22:32:15 28° ESE 22:33:10 38° ENE 22:35:31 10° N
Cosmos 192 4.5 22:29:46 10° S 22:34:30 52° ESE 22:39:16 10° NNE
Cosmos 2184 Rocket 4.1 22:28:36 10° N 22:34:59 81° W 22:41:16 10° S
YAOGAN 11 4.1 22:32:24 19° SSE 22:35:21 67° ENE 22:39:39 10° N
PSLV R/B 3.0 22:32:29 10° W 22:35:35 62° S 22:37:06 26° ESE
CENTAUR R/B 3.3 22:28:11 10° NW 22:36:05 75° WSW 22:42:54 17° SSE
Cosmos 2074 Rocket 4.1 22:29:57 10° N 22:36:12 77° W 22:42:27 10° S
Cosmos 405 3.1 22:33:13 10° N 22:36:46 56° E 22:38:31 26° SSE
Cosmos 1606 Rocket 4.4 22:32:52 10° N 22:36:50 34° ENE 22:38:50 23° SE
Intercosmos 24 3.9 22:35:05 10° N 22:39:15 56° ENE 22:41:05 26° SSE
Cosmos 1610 Rocket 4.5 22:33:25 10° N 22:39:45 79° E 22:44:48 16° SSE
Aureole 1 Rocket 2.1 22:36:19 10° SSW 22:39:45 68° ESE 22:42:46 10° NNE
Cosmos 1680 Rocket 3.4 22:34:37 10° SSW 22:39:50 85° ESE 22:45:06 10° NNE
Cosmos 2056 Rocket 4.3 22:36:57 10° N 22:41:48 38° ENE 22:44:38 21° ESE
NOSS 2-2 (C) 4.0 22:42:16 10° SW 22:46:16 62° NW 22:50:55 10° NNE
MetOp-B 4.2 22:42:24 17° S 22:46:40 82° WSW 22:52:04 10° NNW
Cosmos 1726 Rocket 4.2 22:44:08 10° N 22:48:11 38° ENE 22:49:54 27° ESE
Cosmos 1666 3.3 22:45:49 10° NNW 22:49:30 52° W 22:52:10 17° SSW
Meteor 2-9 Rocket 4.2 22:45:36 10° NNW 22:51:03 81° W 22:55:15 18° S
Cosmos 2058 Rocket 4.1 22:48:17 10° NNE 22:52:14 32° ENE 22:53:45 25° ESE
Lacrosse 5 rocket 4.5 22:52:43 10° NW 22:55:16 14° N 22:57:52 10° NNE
SPOT 5 2.5 22:53:00 24° SSE 22:55:33 85° WSW 22:59:54 10° NNW
Meteor 2-4 Rocket 3.9 22:50:23 10° SSW 22:55:58 75° W 23:01:46 10° N
Landsat 7 4.3 22:56:13 27° SE 22:58:25 47° ENE 23:02:59 10° N
SPOT 1/Viking Rocket 3.5 22:56:00 26° SSE 22:59:00 74° ENE 23:04:10 10° N
SL-08 RB Rocket 3.6 22:59:02 27° SSE 23:01:26 90° E 23:05:56 10° NNW
Cosmos 1025 Rocket 3.0 22:59:36 18° SSW 23:02:43 81° W 23:07:01 10° N
Cosmos 962 Rocket 4.5 22:59:25 10° N 23:05:42 71° E 23:09:15 27° SSE
Cosmos 1833 Rocket 3.8 23:10:08 23° ESE 23:10:29 23° E 23:14:49 10° NE
Terra 2.3 23:11:45 32° ESE 23:13:29 47° ENE 23:18:03 10° N
Tiangong 2 3.3 23:12:34 10° SW 23:13:18 15° SW 23:13:18 15° SW
Cosmos 839 Rocket 4.4 23:11:28 10° NNW 23:17:56 69° NE 23:22:10 28° SE
Cosmos 2154 Rocket 4.2 23:12:07 10° NNW 23:18:26 70° W 23:22:44 22° S
Cosmos 1515 3.5 23:18:34 49° S 23:19:29 76° E 23:23:18 10° NNE
Cosmos 1371 Rocket 4.1 23:15:42 10° NNW 23:21:03 76° WSW 23:23:26 33° S
ISS-0.723:25:09ENE23:25:09ENE23:16:19SW
H-2A R/B 2.4 23:22:16 40° SE 23:23:35 57° ENE 23:28:03 10° N
SL-8 Rocket 4.1 23:18:18 10° N 23:24:30 61° E 23:27:14 34° SE
Cosmos 2366 rocket 4.4 23:22:02 10° N 23:27:59 48° ENE 23:30:17 33° SE
Meteor 1-4 Rocket 3.5 23:26:41 10° N 23:29:58 33° ENE 23:29:58 33° ENE
Cosmos 1626 Rocket 4.2 23:35:05 36° E 23:35:07 36° E 23:39:06 10° NNE
OE (NEXTSAT) 4.5 23:32:45 10° WNW 23:36:18 72° NNE 23:36:40 65° ENE
Cosmos 1980 Rocket 3.8 23:32:17 10° N 23:36:55 25° NE 23:39:36 18° E
CZ-4C R/B 4.4 23:40:59 28° ENE 23:40:59 28° ENE 23:43:54 10° N
OAO 2 Rocket 4.3 23:40:09 10° WSW 23:43:24 29° SSW 23:43:24 29° SSW
Cosmos 2341 Rocket 4.4 23:38:54 10° NNW 23:45:07 60° W 23:48:37 27° SSW
Meteor 1-22 Rocket 4.4 23:41:21 10° N 23:46:31 52° ENE 23:47:49 42° ESE
H-2A R/B 2.7 23:45:20 29° SSW 23:47:24 44° W 23:52:11 10° NNW
DELTA 2 DEB (DPAF) 4.5 23:50:57 47° E 23:51:34 51° ENE 23:55:56 10° N
Cosmos 967 Rocket 4.4 23:46:42 16° SSW 23:51:53 89° WNW 23:58:13 10° NNE
SL-08 R/B 4.4 23:46:40 10° N 23:52:49 73° E 23:54:49 44° SSE
DMSP B5D2-2 4.3 23:47:48 10° N 23:53:05 69° WNW 23:55:47 29° SSW
